STARLINK-30256 (57522 NORAD) Tracking and Keplerian Element Data

This shows tracking and keplerian element data for the satellite.

Feedback or suggestion? Click here.




ElementValue
Catalog57522
NameSTARLINK-30256
Epoch Orbit2485
Epoch Day13.20512281
Epoch Year2024
RAAN318.5243
Inclination43.003
Eccentricity6.07E-05
Argument of Perigee248.2084
Mean Anonmoly111.8693
Mean Motion15.0254283
Decay Rate0.00015813
L11 57522U 23115B 24013.20512281 .00015813 00000+0 11828-2 0 9993
L22 57522 43.0030 318.5243 0000607 248.2084 111.8693 15.02542830 24858



Live tracking and technical data element details for STARLINK-30256 (NORAD 57522). STARLINK-30256 can be tracked NOW for your location showing map with azimuth and elevation plus other details from your city location.







IsCatalogInMostPopularTable: catalog: 57522, numindb: 22
Update: records affected: 1



GetName: 57522 STARLINK-30256

Hit Count: updated at: Thu, 29 Feb 2024 11:24:17 GMT